Skip Page Navigation
NASA JPL Caltech
NASA Logo - Jet Propulsion Laboratory + View the NASA Portal
+ Center for Near-Earth Object Studies
JPL Home Earth Solar System Stars & Galaxies Technology
JPL Solar System Dynamics
BODIES ORBITS EPHEMERIDES TOOLS PHYSICAL DATA DISCOVERY FAQ SITE MAP
JPL Small-Body Database Browser
Search: [ help ]  
173719 (2001 QX177)
Classification: Main-belt Asteroid          SPK-ID: 2173719
Ephemeris | Orbit Diagram | Orbital Elements | Mission Design | Physical Parameters | Discovery Circumstances ]

[ show orbit diagram ]
Orbital Elements at Epoch 2459000.5 (2020-May-31.0) TDB
Reference: JPL 13 (heliocentric ecliptic J2000)
 Element Value Uncertainty (1-sigma)   Units 
e .207673504565426 4.4581e-08  
a 2.812948009118517 1.9895e-08 au
q 2.228773237904536 1.3061e-07 au
i 8.695296681329356 5.2021e-06 deg
node 138.3011315459862 3.0373e-05 deg
peri 238.4352205480406 3.2754e-05 deg
M 315.4632179792824 1.4517e-05 deg
tp 2459213.685331019351
(2020-Dec-30.18533102)
7.081e-05 TDB
period 1723.221025067896
4.72
1.8282e-05
5.005e-08
d
yr
n .2089111000637981 2.2164e-09 deg/d
Q 3.397122780332497 2.4027e-08 au
  Orbit Determination Parameters
   # obs. used (total)      346  
   data-arc span      6930 days (18.97 yr)  
   first obs. used      2001-08-08  
   last obs. used      2020-07-29  
   planetary ephem.      DE431  
   SB-pert. ephem.      SB431-N16  
   condition code      0  
   norm. resid. RMS      .5715  
   source      ORB  
   producer      Otto Matic  
   solution date      2020-Aug-25 13:05:52  

Additional Information
 Earth MOID = 1.24395 au 
 Jupiter MOID = 2.11251 au 
 T_jup = 3.272 
[ show covariance matrix ]

Ephemeris | Orbit Diagram | Orbital Elements | Mission Design | Physical Parameters | Discovery Circumstances ]

Physical Parameter Table
Parameter Symbol Value Units Sigma Reference Notes
absolute magnitude H 15.5   n/a MPO475470  

173719 (2001 QX177)          Discovered 2001-Aug-26 by NEAT at Haleakala
Reference: 20080122/Numbers.arcLast Updated: 2008-01-28

Alternate Designations
 2001 QX177 = 2005 LP45 
Ephemeris | Orbit Diagram | Orbital Elements | Mission Design | Physical Parameters | Discovery Circumstances ]
ABOUT SSD CREDITS/AWARDS PRIVACY/COPYRIGHT GLOSSARY LINKS
FirstGov 2020-Oct-20 20:59 UT
(server date/time)  
NASA Home Page
Site Manager:   Ryan S. Park
Webmaster  Alan B. Chamberlin